Little Falls, MN

9:45 PM CDT on June 26, 2017 (GMT -0500)
Little Falls-Morrison County

Weather History for KLXL - September, 2013

Change the Weather History Date:

Sunday, September 15, 2013

  Actual Average Record
Temperature  
Mean Temperature 50 °F -  
Max Temperature 59 °F 69 °F 94 °F (1939)
Min Temperature 41 °F 46 °F 26 °F (2007)
Degree Days  
Heating Degree Days 15    
Moisture  
Dew Point 49 °F    
Average Humidity 87    
Maximum Humidity 100    
Minimum Humidity 59    
Precipitation  
Precipitation 0.03 in - - ()
Sea Level Pressure  
Sea Level Pressure 30.14 in    
Wind  
Wind Speed 2 mph (North)    
Max Wind Speed 7 mph    
Max Gust Speed -    
Visibility 9 miles    
Events Rain    
Averages and records for this station are not official NWS values.
T = Trace of Precipitation, MM = Missing Value Source: NWS Daily Summary

Daily Weather History Graph

Daily Weather History Graph

Search for Another Location

Airport or City:

Trip Planner

Search our weather history database for the weather conditions in past years. The results will help you decide how hot, cold, wet, or windy it might be!

Date:

Astronomy

Sep. 15, 2013 Rise Set
Actual Time 6:55 AM CDT 7:28 PM CDT
Civil Twilight 6:25 AM CDT 7:58 PM CDT
Nautical Twilight 5:50 AM CDT 8:33 PM CDT
Astronomical Twilight 5:13 AM CDT 9:10 PM CDT
Moon 5:05 PM CDT (9/15) 2:23 AM CDT (9/15)
Length of Visible Light 13h 32m
Length of Day
12h 32m
Waxing Gibbous, 82% of the Moon is Illuminated
Sep 15
Waxing Gibbous
Sep 19
Full
Sep 26
Last Quarter
Oct 4
New
Oct 11
First Quarter

Hourly Weather History & Observations

Time (CDT) Temp. Dew Point Humidity Pressure Visibility Wind Dir Wind Speed Gust Speed Precip Events Conditions
12:14 AM 53.6 °F 51.8 °F 94% 29.93 in 10.0 mi ENE 3.5 mph - 0.01 in Rain Light Rain
12:35 AM 53.6 °F 51.8 °F 94% 29.93 in 10.0 mi Calm Calm - 0.03 in Rain Rain
12:54 AM 53.6 °F 51.8 °F 94% 29.92 in 10.0 mi ENE 3.5 mph - 0.03 in   Overcast
1:14 AM 53.6 °F 51.8 °F 94% 29.93 in 10.0 mi Calm Calm - N/A   Overcast
1:35 AM 53.6 °F 51.8 °F 94% 29.93 in 10.0 mi Calm Calm - N/A   Overcast
1:54 AM 53.6 °F 51.8 °F 94% 29.93 in 10.0 mi Calm Calm - N/A   Overcast
2:14 AM 53.6 °F 51.8 °F 94% 29.94 in 10.0 mi Calm Calm - N/A   Overcast
2:35 AM 53.6 °F 51.8 °F 94% 29.94 in 10.0 mi Calm Calm - N/A   Overcast
2:54 AM 53.6 °F 51.8 °F 94% 29.94 in 10.0 mi Calm Calm - N/A   Overcast
3:14 AM 53.6 °F 51.8 °F 94% 29.95 in 10.0 mi Calm Calm - N/A   Overcast
3:35 AM 53.6 °F 51.8 °F 94% 29.96 in 10.0 mi Calm Calm - N/A   Overcast
3:54 AM 53.6 °F 51.8 °F 94% 29.96 in 10.0 mi Calm Calm - N/A   Overcast
4:14 AM 53.6 °F 51.8 °F 94% 29.97 in 10.0 mi Calm Calm - N/A   Overcast
4:35 AM 53.6 °F 51.8 °F 94% 29.97 in 10.0 mi Calm Calm - N/A   Overcast
4:54 AM 53.6 °F 51.8 °F 94% 29.97 in 10.0 mi Calm Calm - N/A   Overcast
5:15 AM 53.6 °F 51.8 °F 94% 29.98 in 10.0 mi Calm Calm - N/A   Overcast
5:34 AM 53.6 °F 51.8 °F 94% 29.99 in 10.0 mi Calm Calm - N/A   Overcast
5:54 AM 53.6 °F 51.8 °F 94% 29.99 in 10.0 mi Calm Calm - N/A   Overcast
6:15 AM 53.6 °F 51.8 °F 94% 30.00 in 10.0 mi North 3.5 mph - N/A   Overcast
6:34 AM 53.6 °F 51.8 °F 94% 30.01 in 10.0 mi NNW 3.5 mph - N/A   Overcast
6:54 AM 53.6 °F 51.8 °F 94% 30.02 in 10.0 mi Calm Calm - N/A   Overcast
7:15 AM 53.6 °F 51.8 °F 94% 30.03 in 10.0 mi Calm Calm - N/A   Overcast
7:34 AM 53.6 °F 51.8 °F 94% 30.04 in 10.0 mi Calm Calm - N/A   Overcast
7:54 AM 53.6 °F 53.6 °F 100% 30.05 in 10.0 mi Calm Calm - N/A   Mostly Cloudy
8:15 AM 53.6 °F 53.6 °F 100% 30.06 in 10.0 mi Calm Calm - N/A   Mostly Cloudy
8:34 AM 53.6 °F 53.6 °F 100% 30.07 in 7.0 mi NNW 3.5 mph - N/A   Overcast
8:54 AM 55.4 °F 53.6 °F 94% 30.08 in 7.0 mi Calm Calm - N/A   Overcast
9:14 AM 55.4 °F 53.6 °F 94% 30.09 in 2.5 mi Calm Calm - N/A   Overcast
9:34 AM 55.4 °F 53.6 °F 94% 30.10 in 7.0 mi NNW 3.5 mph - N/A   Overcast
9:55 AM 55.4 °F 53.6 °F 94% 30.11 in 10.0 mi North 4.6 mph - N/A   Overcast
10:14 AM 55.4 °F 53.6 °F 94% 30.12 in 10.0 mi NE 6.9 mph - N/A   Overcast
10:34 AM 55.4 °F 53.6 °F 94% 30.13 in 10.0 mi NNE 4.6 mph - N/A   Overcast
10:55 AM 57.2 °F 53.6 °F 88% 30.14 in 10.0 mi North 3.5 mph - N/A   Overcast
11:14 AM 55.4 °F 51.8 °F 88% 30.14 in 10.0 mi North 6.9 mph - N/A   Overcast
11:34 AM 55.4 °F 51.8 °F 88% 30.16 in 10.0 mi NNE 5.8 mph - N/A   Overcast
11:55 AM 55.4 °F 51.8 °F 88% 30.17 in 10.0 mi North 4.6 mph - N/A   Overcast
12:14 PM 55.4 °F 50.0 °F 82% 30.18 in 10.0 mi North 4.6 mph - N/A   Overcast
12:34 PM 55.4 °F 50.0 °F 82% 30.19 in 10.0 mi NNE 3.5 mph - N/A   Overcast
12:55 PM 55.4 °F 50.0 °F 82% 30.20 in 10.0 mi NNE 4.6 mph - N/A   Overcast
1:14 PM 55.4 °F 50.0 °F 82% 30.21 in 10.0 mi North 4.6 mph - N/A   Overcast
1:34 PM 55.4 °F 50.0 °F 82% 30.21 in 10.0 mi NNE 4.6 mph - N/A   Overcast
1:54 PM 55.4 °F 50.0 °F 82% 30.22 in 10.0 mi North 4.6 mph - N/A   Mostly Cloudy
2:14 PM 55.4 °F 50.0 °F 82% 30.22 in 10.0 mi Calm Calm - N/A   Mostly Cloudy
2:34 PM 55.4 °F 50.0 °F 82% 30.23 in 10.0 mi North 3.5 mph - N/A   Overcast
2:54 PM 55.4 °F 48.2 °F 77% 30.24 in 10.0 mi North 5.8 mph - N/A   Overcast
3:15 PM 55.4 °F 48.2 °F 77% 30.25 in 10.0 mi Calm Calm - N/A   Mostly Cloudy
3:34 PM 55.4 °F 48.2 °F 77% 30.25 in 10.0 mi NNW 5.8 mph - N/A   Mostly Cloudy
3:54 PM 55.4 °F 48.2 °F 77% 30.25 in 10.0 mi NNW 6.9 mph - N/A   Mostly Cloudy
4:15 PM 55.4 °F 46.4 °F 72% 30.25 in 10.0 mi NNW 4.6 mph - N/A   Overcast
4:34 PM 55.4 °F 46.4 °F 72% 30.25 in 10.0 mi NNE 3.5 mph - N/A   Overcast
4:54 PM 57.2 °F 44.6 °F 63% 30.26 in 10.0 mi NNE 3.5 mph - N/A   Mostly Cloudy
5:15 PM 57.2 °F 44.6 °F 63% 30.26 in 10.0 mi NE 3.5 mph - N/A   Mostly Cloudy
5:34 PM 57.2 °F 44.6 °F 63% 30.26 in 10.0 mi NNW 3.5 mph - N/A   Mostly Cloudy
5:54 PM 59.0 °F 44.6 °F 59% 30.26 in 10.0 mi Calm Calm - N/A   Scattered Clouds
6:14 PM 59.0 °F 44.6 °F 59% 30.26 in 10.0 mi NNE 3.5 mph - N/A   Scattered Clouds
6:34 PM 55.4 °F 44.6 °F 67% 30.27 in 10.0 mi Calm Calm - N/A   Scattered Clouds
6:55 PM 55.4 °F 44.6 °F 67% 30.27 in 10.0 mi Calm Calm - N/A   Scattered Clouds
7:14 PM 55.4 °F 44.6 °F 67% 30.27 in 10.0 mi Calm Calm - N/A   Scattered Clouds
7:34 PM 53.6 °F 46.4 °F 77% 30.27 in 10.0 mi Calm Calm - N/A   Clear
7:55 PM 51.8 °F 44.6 °F 76% 30.28 in 10.0 mi Calm Calm - N/A   Clear
8:14 PM 50.0 °F 44.6 °F 82% 30.29 in 10.0 mi Calm Calm - N/A   Clear
8:34 PM 48.2 °F 44.6 °F 87% 30.29 in 10.0 mi Calm Calm - N/A   Clear
8:54 PM 46.4 °F 44.6 °F 93% 30.30 in 10.0 mi Calm Calm - N/A   Clear
9:14 PM 44.6 °F 42.8 °F 93% 30.31 in 5.0 mi Calm Calm - N/A   Clear
9:35 PM 44.6 °F 42.8 °F 93% 30.32 in 10.0 mi Calm Calm - N/A   Clear
9:54 PM 44.6 °F 42.8 °F 93% 30.32 in 10.0 mi Calm Calm - N/A   Clear
10:14 PM 44.6 °F 42.8 °F 93% 30.32 in 10.0 mi Calm Calm - N/A   Clear
10:35 PM 41.0 °F 41.0 °F 100% 30.32 in 1.5 mi Calm Calm - N/A   Mist
10:54 PM 42.8 °F 41.0 °F 93% 30.33 in 2.0 mi Calm Calm - N/A   Mostly Cloudy
11:14 PM 42.8 °F 42.8 °F 100% 30.33 in 10.0 mi Calm Calm - N/A   Overcast
11:35 PM 42.8 °F 41.0 °F 93% 30.33 in 10.0 mi Calm Calm - N/A   Mostly Cloudy
11:54 PM 42.8 °F 41.0 °F 93% 30.34 in 7.0 mi Calm Calm - N/A   Mostly Cloudy